| time (UTC) | temp F | wind direction | speed knots | gust knots | rain 1hr in | rain 24hr in | rain mn in | humidity % | barometer mb |
| 20260502194153 | 64 | 233 | 13.9 | 23.5 | 0.00 | 0.00 | 0.00 | 32 | 1012.2 |
| 20260502193653 | 65 | 233 | 11.3 | 20.9 | 0.00 | 0.00 | 0.00 | 38 | 1012.2 |
| 20260502193151 | 65 | 221 | 11.3 | 16.5 | 0.00 | 0.00 | 0.00 | 33 | 1012.3 |
| 20260502192929 | 64 | 223 | 4.3 | 16.5 | 0.00 | 0.00 | 0.00 | 38 | 1012.6 |
| 20260502192151 | 63 | 251 | 11.3 | 16.5 | 0.00 | 0.00 | 0.00 | 36 | 1012.7 |
| 20260502191929 | 65 | 243 | 10.4 | 16.5 | 0.00 | 0.00 | 0.00 | 31 | 1012.8 |
| 20260502191150 | 65 | 230 | 11.3 | 17.4 | 0.00 | 0.00 | 0.00 | 29 | 1012.9 |
| 20260502190923 | 65 | 221 | 13.0 | 18.2 | 0.00 | 0.00 | 0.00 | 32 | 1012.9 |
| 20260502190151 | 64 | 275 | 9.6 | 19.1 | 0.00 | 0.00 | 0.00 | 33 | 1013.1 |
| 20260502185649 | 64 | 197 | 7.8 | 19.1 | 0.00 | 0.00 | 0.00 | 32 | 1013.1 |
| 20260502185425 | 64 | 228 | 11.3 | 20.0 | 0.00 | 0.00 | 0.00 | 30 | 1013.2 |
| 20260502184649 | 65 | 241 | 12.2 | 20.0 | 0.00 | 0.00 | 0.00 | 37 | 1013.3 |
| 20260502184149 | 64 | 223 | 7.8 | 16.5 | 0.00 | 0.00 | 0.00 | 30 | 1013.3 |
| 20260502183650 | 65 | 237 | 9.6 | 16.5 | 0.00 | 0.00 | 0.00 | 30 | 1013.4 |
| 20260502183148 | 64 | 233 | 11.3 | 16.5 | 0.00 | 0.00 | 0.00 | 36 | 1013.6 |
| 20260502182648 | 61 | 235 | 9.6 | 16.5 | 0.00 | 0.00 | 0.00 | 35 | 1013.7 |
| 20260502182149 | 61 | 235 | 9.6 | 16.5 | 0.00 | 0.00 | 0.00 | 35 | 1013.9 |
| 20260502181648 | 61 | 241 | 7.0 | 15.6 | 0.00 | 0.00 | 0.00 | 37 | 1013.9 |
| 20260502181148 | 60 | 245 | 9.6 | 20.9 | 0.00 | 0.00 | 0.00 | 32 | 1014.1 |
| 20260502180648 | 62 | 219 | 8.7 | 20.9 | 0.00 | 0.00 | 0.00 | 31 | 1014.1 |
| 20260502180148 | 63 | 251 | 10.4 | 17.4 | 0.00 | 0.00 | 0.00 | 33 | 1014.2 |
| 20260502170146 | 60 | 230 | 9.6 | 13.9 | 0.00 | 0.00 | 0.00 | 37 | 1015.2 |
| 20260502164145 | 58 | 238 | 6.1 | 14.8 | 0.00 | 0.00 | 0.00 | 37 | 1015.4 |
| 20260502163924 | 58 | 265 | 7.8 | 16.5 | 0.00 | 0.00 | 0.00 | 32 | 1015.5 |
| 20260502163145 | 58 | 261 | 11.3 | 16.5 | 0.00 | 0.00 | 0.00 | 37 | 1015.5 |
| 20260502162646 | 58 | 180 | 6.1 | 13.9 | 0.00 | 0.00 | 0.00 | 33 | 1015.5 |
| 20260502162146 | 58 | 231 | 9.6 | 14.8 | 0.00 | 0.00 | 0.00 | 37 | 1015.7 |
| 20260502161647 | 58 | 240 | 9.6 | 14.8 | 0.00 | 0.00 | 0.00 | 36 | 1015.8 |
| 20260502161146 | 57 | 230 | 8.7 | 14.8 | 0.00 | 0.00 | 0.00 | 35 | 1015.8 |
| 20260502160646 | 57 | 285 | 10.4 | 14.8 | 0.00 | 0.00 | 0.00 | 33 | 1015.9 |
| 20260502160424 | 57 | 223 | 7.8 | 13.9 | 0.00 | 0.00 | 0.00 | 35 | 1016.0 |
| 20260502151639 | 55 | 210 | 7.8 | 14.8 | 0.00 | 0.00 | 0.00 | 39 | 1016.6 |
| 20260502151139 | 55 | 241 | 9.6 | 13.0 | 0.00 | 0.00 | 0.00 | 41 | 1016.8 |
| 20260502150639 | 54 | 234 | 7.8 | 13.0 | 0.00 | 0.00 | 0.00 | 39 | 1016.7 |
| 20260502150140 | 54 | 288 | 8.7 | 13.0 | 0.00 | 0.00 | 0.00 | 40 | 1016.8 |
| 20260502130634 | 42 | 288 | 3.5 | 5.2 | 0.00 | 0.00 | 0.00 | 67 | 1017.6 |
| 20260502123628 | 36 | 264 | 2.6 | 3.5 | 0.00 | 0.00 | 0.00 | 82 | 1017.7 |
| 20260502123128 | 35 | 278 | 2.6 | 3.5 | 0.00 | 0.00 | 0.00 | 83 | 1017.7 |
| 20260502122625 | 33 | 283 | 1.7 | 3.5 | 0.00 | 0.00 | 0.00 | 81 | 1017.9 |
| 20260502122126 | 33 | 276 | 3.5 | 3.5 | 0.00 | 0.00 | 0.00 | 82 | 1017.9 |
| 20260502121647 | 32 | 288 | 2.6 | 3.5 | 0.00 | 0.00 | 0.00 | 83 | 1017.9 |
| 20260502120901 | 31 | 289 | 2.6 | 4.3 | 0.00 | 0.00 | 0.00 | 81 | 1017.7 |
| 20260502120125 | 30 | 279 | 3.5 | 4.3 | 0.00 | 0.00 | 0.00 | 82 | 1017.9 |
| 20260502115641 | 29 | 288 | 3.5 | 3.5 | 0.00 | 0.00 | 0.00 | 82 | 1017.9 |
| 20260502114623 | 29 | 288 | 2.6 | 3.5 | 0.00 | 0.00 | 0.00 | 83 | 1017.9 |
| 20260502114124 | 29 | 286 | 2.6 | 3.5 | 0.00 | 0.00 | 0.00 | 83 | 1017.7 |
| 20260502113624 | 29 | 296 | 2.6 | 2.6 | 0.00 | 0.00 | 0.00 | 83 | 1017.6 |
| 20260502113400 | 30 | 290 | 1.7 | 2.6 | 0.00 | 0.00 | 0.00 | 84 | 1017.7 |
| 20260502112625 | 29 | 290 | 1.7 | 3.5 | 0.00 | 0.00 | 0.00 | 83 | 1017.6 |
| 20260502112124 | 29 | 289 | 1.7 | 4.3 | 0.00 | 0.00 | 0.00 | 81 | 1017.6 |
| 20260502111625 | 29 | 293 | 3.5 | 4.3 | 0.00 | 0.00 | 0.00 | 78 | 1017.6 |
| 20260502111126 | 29 | 279 | 3.5 | 5.2 | 0.00 | 0.00 | 0.00 | 79 | 1017.7 |
| 20260502110624 | 29 | 299 | 3.5 | 6.1 | 0.00 | 0.00 | 0.00 | 80 | 1017.7 |
| 20260502110125 | 28 | 276 | 5.2 | 6.1 | 0.00 | 0.00 | 0.00 | 80 | 1017.7 |
| 20260502105905 | 28 | 279 | 5.2 | 6.1 | 0.00 | 0.00 | 0.00 | 80 | 1017.9 |
| 20260502105125 | 28 | 275 | 3.5 | 6.1 | 0.00 | 0.00 | 0.00 | 79 | 1017.7 |
| 20260502104903 | 28 | 283 | 2.6 | 3.5 | 0.00 | 0.00 | 0.00 | 76 | 1017.7 |
| 20260502104407 | 28 | 289 | 2.6 | 2.6 | 0.00 | 0.00 | 0.00 | 76 | 1017.7 |
| 20260502103624 | 28 | 290 | 1.7 | 2.6 | 0.00 | 0.00 | 0.00 | 78 | 1017.7 |
| 20260502103124 | 29 | 290 | 1.7 | 2.6 | 0.00 | 0.00 | 0.00 | 78 | 1017.6 |
| 20260502102624 | 29 | 290 | 1.7 | 2.6 | 0.00 | 0.00 | 0.00 | 79 | 1017.7 |
| 20260502102401 | 29 | 295 | 1.7 | 3.5 | 0.00 | 0.00 | 0.00 | 80 | 1017.6 |
| 20260502101624 | 29 | 295 | 2.6 | 3.5 | 0.00 | 0.00 | 0.00 | 79 | 1017.7 |
| 20260502101125 | 29 | 307 | 2.6 | 3.5 | 0.00 | 0.00 | 0.00 | 76 | 1017.7 |
| 20260502100624 | 29 | 313 | 2.6 | 3.5 | 0.00 | 0.00 | 0.00 | 76 | 1017.6 |
| 20260502100125 | 29 | 313 | 3.5 | 3.5 | 0.00 | 0.00 | 0.00 | 82 | 1017.7 |
| 20260502091125 | 30 | 338 | 1.7 | 3.5 | 0.00 | 0.00 | 0.00 | 79 | 1017.6 |
| 20260502090626 | 30 | 338 | 2.6 | 3.5 | 0.00 | 0.00 | 0.00 | 76 | 1017.6 |
| 20260502090127 | 29 | 345 | 2.6 | 3.5 | 0.00 | 0.00 | 0.00 | 79 | 1017.5 |
| 20260502071124 | 31 | 313 | 3.5 | 4.3 | 0.00 | 0.00 | 0.00 | 75 | 1018.1 |
| 20260502070624 | 31 | 310 | 3.5 | 4.3 | 0.00 | 0.00 | 0.00 | 74 | 1018.1 |
| 20260502070124 | 31 | 319 | 3.5 | 4.3 | 0.00 | 0.00 | 0.00 | 75 | 1018.1 |
| 20260502065624 | 32 | 313 | 3.5 | 4.3 | 0.00 | 0.00 | 0.00 | 76 | 1018.1 |
| 20260502065356 | 32 | 314 | 3.5 | 5.2 | 0.00 | 0.00 | 0.00 | 76 | 1018.3 |
| 20260502064625 | 32 | 307 | 4.3 | 5.2 | 0.00 | 0.00 | 0.00 | 74 | 1018.3 |
| 20260502064124 | 32 | 309 | 4.3 | 5.2 | 0.00 | 0.00 | 0.00 | 78 | 1018.3 |
| 20260502063624 | 32 | 298 | 4.3 | 6.1 | 0.00 | 0.00 | 0.00 | 78 | 1018.3 |
| 20260502063124 | 32 | 289 | 5.2 | 6.1 | 0.00 | 0.00 | 0.00 | 76 | 1018.4 |
| 20260502062624 | 32 | 300 | 4.3 | 5.2 | 0.00 | 0.00 | 0.00 | 74 | 1018.3 |
| 20260502062356 | 32 | 302 | 4.3 | 5.2 | 0.00 | 0.00 | 0.00 | 71 | 1018.3 |
| 20260502061854 | 32 | 298 | 5.2 | 5.2 | 0.00 | 0.00 | 0.00 | 71 | 1018.3 |
| 20260502061124 | 32 | 290 | 5.2 | 5.2 | 0.00 | 0.00 | 0.00 | 73 | 1018.3 |
| 20260502060625 | 32 | 292 | 4.3 | 5.2 | 0.00 | 0.00 | 0.00 | 71 | 1018.2 |
| 20260502060125 | 32 | 289 | 3.5 | 4.3 | 0.00 | 0.00 | 0.00 | 70 | 1018.2 |
| 20260502055855 | 33 | 300 | 3.5 | 4.3 | 0.00 | 0.00 | 0.00 | 74 | 1018.2 |
| 20260502055125 | 33 | 293 | 4.3 | 4.3 | 0.00 | 0.00 | 0.00 | 68 | 1018.3 |
| 20260502054624 | 33 | 288 | 4.3 | 4.3 | 0.00 | 0.00 | 0.00 | 68 | 1018.2 |
| 20260502054124 | 33 | 275 | 3.5 | 4.3 | 0.00 | 0.00 | 0.00 | 72 | 1018.2 |
| 20260502053624 | 33 | 289 | 1.7 | 2.6 | 0.00 | 0.00 | 0.00 | 70 | 1018.3 |
| 20260502053126 | 33 | 307 | 1.7 | 2.6 | 0.00 | 0.00 | 0.00 | 70 | 1018.2 |
| 20260502052855 | 33 | 323 | 2.6 | 2.6 | 0.00 | 0.00 | 0.00 | 70 | 1018.3 |
| 20260502052124 | 33 | 329 | 2.6 | 2.6 | 0.00 | 0.00 | 0.00 | 70 | 1018.2 |
| 20260502051623 | 33 | 299 | 0.9 | 2.6 | 0.00 | 0.00 | 0.00 | 73 | 1018.3 |
| 20260502051142 | 33 | 299 | 1.7 | 2.6 | 0.00 | 0.00 | 0.00 | 66 | 1018.2 |
| 20260502050125 | 34 | 299 | 2.6 | 4.3 | 0.00 | 0.00 | 0.00 | 67 | 1018.3 |
| 20260502045624 | 35 | 296 | 3.5 | 4.3 | 0.00 | 0.00 | 0.00 | 66 | 1018.3 |
| 20260502045124 | 35 | 305 | 3.5 | 3.5 | 0.00 | 0.00 | 0.00 | 66 | 1018.3 |
| 20260502044624 | 35 | 312 | 3.5 | 3.5 | 0.00 | 0.00 | 0.00 | 62 | 1018.3 |
| 20260502044355 | 35 | 313 | 3.5 | 4.3 | 0.00 | 0.00 | 0.00 | 64 | 1018.2 |
| 20260502043625 | 35 | 313 | 3.5 | 4.3 | 0.00 | 0.00 | 0.00 | 64 | 1018.3 |
| 20260502043124 | 35 | 314 | 3.5 | 3.5 | 0.00 | 0.00 | 0.00 | 61 | 1018.3 |
| 20260502042623 | 36 | 316 | 3.5 | 3.5 | 0.00 | 0.00 | 0.00 | 55 | 1018.3 |
| 20260502042124 | 35 | 314 | 3.5 | 4.3 | 0.00 | 0.00 | 0.00 | 57 | 1018.3 |
| 20260502041623 | 36 | 305 | 3.5 | 4.3 | 0.00 | 0.00 | 0.00 | 62 | 1018.3 |
| 20260502041124 | 36 | 303 | 3.5 | 4.3 | 0.00 | 0.00 | 0.00 | 61 | 1018.3 |
| 20260502040855 | 36 | 303 | 3.5 | 4.3 | 0.00 | 0.00 | 0.00 | 62 | 1018.3 |
| 20260502040123 | 36 | 295 | 3.5 | 3.5 | 0.00 | 0.00 | 0.00 | 57 | 1018.5 |
| 20260502035623 | 36 | 288 | 2.6 | 3.5 | 0.00 | 0.00 | 0.00 | 59 | 1018.4 |
| 20260502035144 | 36 | 281 | 2.6 | 3.5 | 0.00 | 0.00 | 0.00 | 61 | 1018.5 |
| 20260502034124 | 37 | 327 | 2.6 | 3.5 | 0.00 | 0.00 | 0.00 | 54 | 1018.5 |
| 20260502033624 | 37 | 330 | 2.6 | 3.5 | 0.00 | 0.00 | 0.00 | 53 | 1018.5 |
| 20260502033124 | 37 | 331 | 2.6 | 3.5 | 0.00 | 0.00 | 0.00 | 57 | 1018.4 |
| 20260502032623 | 38 | 333 | 2.6 | 3.5 | 0.00 | 0.00 | 0.00 | 59 | 1018.4 |
| 20260502032358 | 38 | 330 | 2.6 | 3.5 | 0.00 | 0.00 | 0.00 | 55 | 1018.3 |
| 20260502031855 | 38 | 333 | 2.6 | 2.6 | 0.00 | 0.00 | 0.00 | 53 | 1018.4 |
| 20260502031123 | 38 | 331 | 2.6 | 2.6 | 0.00 | 0.00 | 0.00 | 57 | 1018.3 |
| 20260502030859 | 39 | 333 | 1.7 | 3.5 | 0.00 | 0.00 | 0.00 | 54 | 1018.4 |
| 20260502030124 | 39 | 338 | 1.7 | 3.5 | 0.00 | 0.00 | 0.00 | 48 | 1018.4 |
| 20260502025624 | 39 | 333 | 1.7 | 2.6 | 0.00 | 0.00 | 0.00 | 45 | 1018.3 |
| 20260502025125 | 40 | 333 | 1.7 | 2.6 | 0.00 | 0.00 | 0.00 | 44 | 1018.3 |
| 20260502024624 | 40 | 340 | 1.7 | 2.6 | 0.00 | 0.00 | 0.00 | 43 | 1018.3 |
| 20260502024124 | 40 | 340 | 1.7 | 2.6 | 0.00 | 0.00 | 0.00 | 43 | 1018.3 |
| 20260502023624 | 40 | 355 | 1.7 | 2.6 | 0.00 | 0.00 | 0.00 | 44 | 1018.3 |
| 20260502023124 | 41 | 355 | 1.7 | 2.6 | 0.00 | 0.00 | 0.00 | 46 | 1018.3 |
| 20260502022625 | 41 | 355 | 1.7 | 2.6 | 0.00 | 0.00 | 0.00 | 43 | 1018.3 |
| 20260502022125 | 42 | 355 | 1.7 | 2.6 | 0.00 | 0.00 | 0.00 | 43 | 1018.3 |
| 20260502021625 | 42 | 355 | 1.7 | 2.6 | 0.00 | 0.00 | 0.00 | 39 | 1018.2 |
| 20260502021125 | 42 | 0 | 1.7 | 3.5 | 0.00 | 0.00 | 0.00 | 39 | 1018.2 |
| 20260502020645 | 42 | 0 | 2.6 | 3.5 | 0.00 | 0.00 | 0.00 | 41 | 1018.1 |
| 20260502015931 | 43 | 0 | 2.6 | 3.5 | 0.00 | 0.00 | 0.00 | 39 | 1018.1 |
| 20260502014624 | 44 | 0 | 2.6 | 3.5 | 0.00 | 0.00 | 0.00 | 38 | 1018.0 |
| 20260502014125 | 44 | 0 | 2.6 | 3.5 | 0.00 | 0.00 | 0.00 | 39 | 1018.0 |
| 20260502013624 | 44 | 357 | 1.7 | 3.5 | 0.00 | 0.00 | 0.00 | 36 | 1017.9 |
| 20260502013124 | 45 | 0 | 2.6 | 2.6 | 0.00 | 0.00 | 0.00 | 37 | 1018.0 |
| 20260502012626 | 45 | 0 | 1.7 | 3.5 | 0.00 | 0.00 | 0.00 | 38 | 1017.9 |
| 20260502012124 | 46 | 358 | 2.6 | 4.3 | 0.00 | 0.00 | 0.00 | 37 | 1017.9 |
| 20260502011624 | 47 | 355 | 2.6 | 4.3 | 0.00 | 0.00 | 0.00 | 38 | 1017.7 |
| 20260502011355 | 47 | 0 | 3.5 | 5.2 | 0.00 | 0.00 | 0.00 | 38 | 1017.7 |
| 20260502010626 | 47 | 334 | 3.5 | 6.1 | 0.00 | 0.00 | 0.00 | 40 | 1017.9 |
| 20260502010124 | 48 | 348 | 4.3 | 6.1 | 0.00 | 0.00 | 0.00 | 37 | 1017.7 |
| 20260502005625 | 49 | 0 | 3.5 | 10.4 | 0.00 | 0.00 | 0.00 | 32 | 1017.6 |
| 20260502005403 | 49 | 6 | 3.5 | 11.3 | 0.00 | 0.00 | 0.00 | 32 | 1017.6 |
| 20260502004624 | 49 | 358 | 6.1 | 11.3 | 0.00 | 0.00 | 0.00 | 32 | 1017.5 |
| 20260502004126 | 50 | 8 | 4.3 | 10.4 | 0.00 | 0.00 | 0.00 | 30 | 1017.5 |
| 20260502003900 | 50 | 18 | 6.1 | 10.4 | 0.00 | 0.00 | 0.00 | 28 | 1017.4 |
| 20260502003124 | 50 | 0 | 7.0 | 10.4 | 0.00 | 0.00 | 0.00 | 29 | 1017.5 |
| 20260502002623 | 51 | 3 | 5.2 | 8.7 | 0.00 | 0.00 | 0.00 | 24 | 1017.5 |
| 20260502002121 | 51 | 0 | 4.3 | 8.7 | 0.00 | 0.00 | 0.00 | 29 | 1017.5 |
| 20260502001623 | 51 | 10 | 4.3 | 10.4 | 0.00 | 0.00 | 0.00 | 31 | 1017.5 |
| 20260502001124 | 51 | 0 | 7.0 | 10.4 | 0.00 | 0.00 | 0.00 | 27 | 1017.6 |
| 20260502000623 | 51 | 28 | 5.2 | 9.6 | 0.00 | 0.00 | 0.00 | 30 | 1017.5 |
| 20260502000122 | 51 | 345 | 5.2 | 12.2 | 0.00 | 0.00 | 0.00 | 27 | 1017.5 |
| 20260501235622 | 51 | 0 | 7.8 | 13.9 | 0.00 | 0.00 | 0.00 | 29 | 1017.5 |
| 20260501235354 | 51 | 343 | 11.3 | 13.9 | 0.00 | 0.00 | 0.00 | 28 | 1017.6 |
| 20260501234618 | 51 | 0 | 6.1 | 15.6 | 0.00 | 0.00 | 0.00 | 28 | 1017.6 |
| 20260501234118 | 52 | 330 | 9.6 | 15.6 | 0.00 | 0.00 | 0.00 | 27 | 1017.5 |
| 20260501233854 | 52 | 333 | 8.7 | 13.0 | 0.00 | 0.00 | 0.00 | 27 | 1017.6 |
| 20260501233356 | 52 | 326 | 10.4 | 13.0 | 0.00 | 0.00 | 0.00 | 28 | 1017.5 |
| 20260501232618 | 52 | 306 | 6.1 | 12.2 | 0.00 | 0.00 | 0.00 | 23 | 1017.6 |
| 20260501232118 | 53 | 0 | 7.0 | 13.9 | 0.00 | 0.00 | 0.00 | 24 | 1017.4 |
| 20260501231615 | 53 | 0 | 8.7 | 13.9 | 0.00 | 0.00 | 0.00 | 24 | 1017.6 |
| 20260501231115 | 53 | 347 | 10.4 | 13.9 | 0.00 | 0.00 | 0.00 | 27 | 1017.5 |
| 20260501230615 | 53 | 324 | 10.4 | 13.9 | 0.00 | 0.00 | 0.00 | 26 | 1017.6 |
| 20260501230115 | 54 | 0 | 8.7 | 11.3 | 0.00 | 0.00 | 0.00 | 28 | 1017.5 |
| 20260501225615 | 54 | 334 | 4.3 | 13.0 | 0.00 | 0.00 | 0.00 | 28 | 1017.5 |
| 20260501225115 | 53 | 329 | 6.1 | 17.4 | 0.00 | 0.00 | 0.00 | 26 | 1017.6 |
| 20260501224851 | 53 | 310 | 8.7 | 17.4 | 0.00 | 0.00 | 0.00 | 28 | 1017.6 |
| 20260501224115 | 54 | 347 | 11.3 | 17.4 | 0.00 | 0.00 | 0.00 | 28 | 1017.5 |
| 20260501223850 | 55 | 316 | 6.1 | 14.8 | 0.00 | 0.00 | 0.00 | 21 | 1017.5 |
| 20260501223114 | 55 | 0 | 6.1 | 14.8 | 0.00 | 0.00 | 0.00 | 28 | 1017.6 |
| 20260501222615 | 56 | 316 | 7.8 | 13.0 | 0.00 | 0.00 | 0.00 | 29 | 1017.5 |
| 20260501222115 | 55 | 0 | 5.2 | 11.3 | 0.00 | 0.00 | 0.00 | 26 | 1017.6 |
| 20260501221615 | 55 | 341 | 5.2 | 11.3 | 0.00 | 0.00 | 0.00 | 24 | 1017.6 |
| 20260501221115 | 54 | 11 | 5.2 | 9.6 | 0.00 | 0.00 | 0.00 | 26 | 1017.6 |
| 20260501220614 | 54 | 34 | 5.2 | 9.6 | 0.00 | 0.00 | 0.00 | 27 | 1017.7 |
| 20260501220116 | 52 | 0 | 6.1 | 12.2 | 0.00 | 0.00 | 0.00 | 27 | 1017.7 |
| 20260501215612 | 53 | 0 | 8.7 | 13.9 | 0.00 | 0.00 | 0.00 | 28 | 1017.7 |
| 20260501215114 | 51 | 343 | 6.1 | 13.9 | 0.00 | 0.00 | 0.00 | 29 | 1017.9 |
| 20260501214612 | 52 | 0 | 5.2 | 10.4 | 0.00 | 0.00 | 0.00 | 31 | 1017.7 |
| 20260501214112 | 52 | 326 | 1.7 | 9.6 | 0.00 | 0.00 | 0.00 | 28 | 1017.7 |
| 20260501213847 | 53 | 0 | 4.3 | 14.8 | 0.00 | 0.00 | 0.00 | 26 | 1017.9 |
| 20260501213112 | 54 | 0 | 9.6 | 15.6 | 0.00 | 0.00 | 0.00 | 29 | 1017.7 |
| 20260501212608 | 54 | 0 | 10.4 | 15.6 | 0.00 | 0.00 | 0.00 | 24 | 1017.7 |
| 20260501212109 | 54 | 327 | 8.7 | 18.2 | 0.00 | 0.00 | 0.00 | 24 | 1017.9 |
| 20260501211608 | 55 | 344 | 13.0 | 18.2 | 0.00 | 0.00 | 0.00 | 29 | 1017.7 |
| 20260501211109 | 55 | 347 | 11.3 | 16.5 | 0.00 | 0.00 | 0.00 | 29 | 1017.9 |
| 20260501210609 | 54 | 319 | 9.6 | 13.9 | 0.00 | 0.00 | 0.00 | 27 | 1018.0 |
| 20260501210107 | 54 | 296 | 4.3 | 9.6 | 0.00 | 0.00 | 0.00 | 23 | 1018.0 |
| 20260501205607 | 52 | 343 | 7.0 | 13.0 | 0.00 | 0.00 | 0.00 | 35 | 1018.0 |
| 20260501205108 | 52 | 345 | 6.1 | 13.0 | 0.00 | 0.00 | 0.00 | 29 | 1018.1 |
| 20260501204608 | 51 | 23 | 7.0 | 13.0 | 0.00 | 0.00 | 0.00 | 31 | 1018.2 |
| 20260501204108 | 51 | 21 | 5.2 | 10.4 | 0.00 | 0.00 | 0.00 | 30 | 1018.1 |
| 20260501203606 | 52 | 3 | 3.5 | 5.2 | 0.00 | 0.00 | 0.00 | 28 | 1018.1 |
| 20260501203106 | 51 | 350 | 1.7 | 8.7 | 0.00 | 0.00 | 0.00 | 28 | 1018.2 |
| 20260501202608 | 53 | 102 | 3.5 | 13.0 | 0.00 | 0.00 | 0.00 | 23 | 1018.3 |
| 20260501202106 | 52 | 0 | 5.2 | 13.0 | 0.00 | 0.00 | 0.00 | 30 | 1018.3 |
| 20260501201606 | 55 | 0 | 9.6 | 13.0 | 0.00 | 0.00 | 0.00 | 29 | 1018.2 |
| 20260501201106 | 54 | 333 | 1.7 | 7.8 | 0.00 | 0.00 | 0.00 | 30 | 1018.3 |
| 20260501200607 | 54 | 82 | 1.7 | 8.7 | 0.00 | 0.00 | 0.00 | 28 | 1018.3 |
| 20260501195602 | 53 | 75 | 2.6 | 13.9 | 0.00 | 0.00 | 0.00 | 27 | 1018.3 |
| 20260501195104 | 53 | 3 | 7.0 | 13.9 | 0.00 | 0.00 | 0.00 | 33 | 1018.4 |